Вернуться в каталог

STARLINK-2728

АктивенСвязьVLEO
NORAD 48478·PAYLOAD·🇺🇸 United States

Запущен May 9, 2021 с Cape Canaveral Space Force Station

Loading…

Ближайшие Пролёты (ближайшие 24 часа)

TLE

СвежийSource: CelesTrak SupGP

Эпоха: Sep 15, 2026, 01:10 UTC

1 48478C 21040BC  26258.04909722 -.00029429  00000+0 -94635-3 0  2589
2 48478  53.1593  29.9018 0001117  80.9540 117.0470 15.31716743    13

Отслеживайте STARLINK-2728 в реальном времени с AllMySat

Download on the App Store